[[{"header":{"parameterUnit":"m.s-1","parameterCategory":1,"la1":30.2991,"la2":30.254,"lo1":-89.0895,"lo2":-89.0444,"dy":0.0017,"dx":0.0017,"nx":28,"ny":28,"refTime":"2025-08-06T21:00:00:Z","depth":0,"parameterNumber":2,"parameterNumberName":"U-component_of_WINDS"},"data":[0,0,0,0,0,0,0,0,0,0,0,0,0,0,0,0,0,0,0,0,0,0,0,0,0,0,0,0,0,0,0,0,0,0,0,0,0,0,0,0,0,0,0,0,0,0,0,0,0,0,0,0,0,0,0,0,0,0,0.2412,0.2415,0,0.264,0.2643,0.2646,0.272,0.2719,0.2718,0.2717,0.2956,0.2963,0.297,0,0,0,0,0,0,0,0,0,0,0,0,0,0.2046,0.2052,0.2412,0.2415,0.2418,0.264,0.2643,0.2646,0.272,0.2719,0.2718,0.2717,0.2954,0.2962,0.2971,0,0,0,0,0,0,0,0,0,0,0,0,0,0.2233,0.2054,0.2412,0.2481,0.249,0.2639,0.2643,0.2647,0.272,0.2719,0.2717,0.2716,0.2951,0.2961,0.2972,0.3071,0,0,0.3006,0.3011,0,0,0,0,0,0,0,0,0.2222,0.2246,0.2468,0.2477,0.2487,0.265,0.2602,0.2789,0.2721,0.2633,0.2717,0.2715,0.2856,0.2875,0.2921,0.3082,0.3092,0.3007,0.3013,0.3018,0.3021,0,0,0,0,0,0,0,0.2209,0.2237,0.2503,0.2471,0.2483,0.2503,0.2528,0.2638,0.2751,0.2641,0.2647,0.2672,0.2861,0.291,0.2927,0.3095,0.3006,0.3016,0.3023,0.3027,0.3349,0.3351,0,0,0,0,0,0,0.2183,0.2225,0.2495,0.2509,0.2348,0.2511,0.2539,0.2599,0.2749,0.2771,0.2673,0.2675,0.2892,0.2914,0.2936,0.306,0.3018,0.3028,0.3035,0.3347,0.3349,0.3352,0,0,0,0,0,0,0.2175,0.2207,0.2486,0.2369,0.2406,0.2519,0.2586,0.2605,0.2654,0.2774,0.2795,0.2703,0.2892,0.292,0.3036,0.307,0.3033,0.3043,0.3345,0.3348,0.335,0.331,0,0,0,0,0,0,0.2164,0.2203,0.2241,0.2369,0.2412,0.2581,0.2588,0.261,0.2672,0.2676,0.2807,0.2828,0.2893,0.3019,0.3047,0.3084,0.3052,0.3342,0.3346,0.335,0.3309,0.3311,0.3313,0,0,0,0,0,0.2151,0.2221,0.2242,0.2274,0.2461,0.2583,0.2607,0.2679,0.2674,0.2713,0.2791,0.2823,0.3062,0.3031,0.3062,0.3103,0.334,0.3345,0.3349,0.3308,0.3311,0.3313,0,0,0,0,0,0,0.2095,0.2239,0.2264,0.2377,0.2467,0.2595,0.2646,0.268,0.2774,0.2774,0.2862,0.2891,0.3,0.3064,0.3027,0.3207,0.3203,0.3214,0.316,0.3164,0.3166,0.3149,0.3061,0,0,0,0,0,0.2096,0.2181,0.2303,0.2392,0.2435,0.2533,0.2589,0.2636,0.2733,0.2772,0.2858,0.2952,0.3049,0.311,0.3206,0.3319,0.3349,0.3363,0.3365,0.3366,0.3375,0.344,0.3447,0.3366,0.3366,0.3366,0,0,0.2098,0.2188,0.2236,0.2383,0.2458,0.2545,0.2564,0.2657,0.2723,0.2787,0.2901,0.2967,0.3078,0.3193,0.3248,0.325,0.3404,0.3372,0.3372,0.338,0.3445,0.3452,0.3459,0.3369,0.3369,0.3368,0,0,0.2147,0.2223,0.2305,0.238,0.2492,0.2557,0.2576,0.27,0.2746,0.2861,0.2911,0.2992,0.3156,0.3233,0.3294,0.3373,0.3406,0.3402,0.3413,0.3475,0.3482,0.3488,0.3516,0.3525,0.341,0.341,0.341,0,0.2136,0.2269,0.2343,0.2433,0.2496,0.2557,0.2641,0.271,0.2849,0.2892,0.2891,0.3098,0.3177,0.3311,0.333,0.3377,0.3403,0.3387,0.3474,0.3481,0.3488,0.3516,0.3526,0.3408,0.3408,0.3409,0.3409,0,0.225,0.2342,0.2395,0.2525,0.2595,0.2681,0.277,0.2832,0.2874,0.2938,0.3056,0.3153,0.3269,0.3305,0.3347,0.3445,0.3442,0.3457,0.3455,0.3493,0.352,0.3532,0.3406,0.3407,0.3407,0.3408,0,0,0.2269,0.244,0.2458,0.2518,0.2647,0.272,0.281,0.2922,0.2973,0.3067,0.3145,0.3282,0.3297,0.3366,0.3418,0.3472,0.3528,0.3481,0.3485,0.3486,0.3642,0.3629,0.364,0.3552,0.3554,0.3556,0.3632,0,0.2335,0.2495,0.2565,0.2695,0.2781,0.284,0.2919,0.3007,0.3071,0.3154,0.3226,0.3321,0.3333,0.3375,0.3431,0.3509,0.3561,0.3505,0.3626,0.363,0.3595,0.3655,0.3642,0.3709,0.3644,0.3646,0.3647,0,0.2432,0.2524,0.2662,0.2781,0.2819,0.2888,0.2996,0.3075,0.3178,0.322,0.3297,0.3346,0.3445,0.3436,0.3573,0.3534,0.3588,0.3634,0.3638,0.3652,0.364,0.3669,0.3732,0.3742,0.3665,0.3663,0.3662,0,0.2431,0.259,0.2693,0.2743,0.2884,0.2932,0.2993,0.3094,0.3157,0.3252,0.3294,0.34,0.3458,0.354,0.3617,0.3604,0.3747,0.3745,0.3786,0.3784,0.3813,0.381,0.3885,0.3849,0.3849,0.3848,0.3848,0,0.2496,0.2578,0.2695,0.2758,0.2852,0.2932,0.3024,0.309,0.3179,0.3257,0.3316,0.3389,0.3487,0.3573,0.3634,0.3739,0.3765,0.3803,0.3818,0.3797,0.3792,0.3833,0.383,0.3851,0.3851,0.385,0.385,0,0.251,0.2592,0.2708,0.2832,0.2865,0.2929,0.3036,0.3101,0.3167,0.3266,0.3294,0.3399,0.3502,0.3588,0.3725,0.3766,0.3875,0.3893,0.3839,0.3847,0.3883,0.3878,0.3986,0.4005,0.3956,0.3956,0.3957,0,0.2546,0.261,0.2741,0.2796,0.2856,0.2946,0.301,0.3093,0.3157,0.3279,0.3329,0.3436,0.3527,0.369,0.378,0.3885,0.3906,0.3936,0.3922,0.3899,0.3906,0.3901,0.3908,0.3937,0.3937,0.3937,0.3938,0,0.26,0.2637,0.2726,0.2829,0.2904,0.299,0.3077,0.312,0.3219,0.3289,0.3395,0.3465,0.3604,0.371,0.3825,0.389,0.3931,0.3941,0.3956,0.3935,0.3901,0.392,0.3842,0.3938,0.3938,0.3938,0.3938,0.3938,0.2626,0.2685,0.2787,0.2884,0.2958,0.3039,0.3105,0.318,0.3269,0.3387,0.3431,0.354,0.3642,0.38,0.3866,0.3953,0.3958,0.3979,0.3985,0.3989,0.3985,0.3887,0.3974,0.3975,0.3975,0.3975,0.3975,0,0.2682,0.275,0.2839,0.2959,0.3036,0.3066,0.3165,0.3228,0.3322,0.3413,0.35,0.3622,0.3726,0.3824,0.3933,0.3984,0.4005,0.401,0.4006,0.4021,0.3975,0.3951,0.399,0.399,0.399,0.399,0.399,0.399,0.2721,0.2823,0.2872,0.3013,0.3081,0.3187,0.324,0.3316,0.3389,0.3521,0.3607,0.367,0.3764,0.388,0.3977,0.4004,0.4041,0.404,0.4071,0.4027,0.4024,0.4022,0.3999,0.4048,0.4048,0.411,0.411,0.4111]},{"header":{"parameterUnit":"m.s-1","parameterCategory":1,"la1":30.2991,"la2":30.254,"lo1":-89.0895,"lo2":-89.0444,"dy":0.0017,"dx":0.0017,"nx":28,"ny":28,"refTime":"2025-08-06T21:00:00:Z","depth":0,"parameterNumber":3,"parameterNumberName":"V-component_of_WINDS"},"data":[0,0,0,0,0,0,0,0,0,0,0,0,0,0,0,0,0,0,0,0,0,0,0,0,0,0,0,0,0,0,0,0,0,0,0,0,0,0,0,0,0,0,0,0,0,0,0,0,0,0,0,0,0,0,0,0,0,0,3.808,3.8079,0,3.7982,3.7981,3.798,3.7898,3.7897,3.7896,3.7896,3.7788,3.7786,3.7784,0,0,0,0,0,0,0,0,0,0,0,0,0,3.819,3.8189,3.808,3.8079,3.8078,3.7983,3.7981,3.798,3.7898,3.7897,3.7896,3.7895,3.7789,3.7787,3.7784,0,0,0,0,0,0,0,0,0,0,0,0,0,3.8122,3.8188,3.808,3.8026,3.802,3.7983,3.7981,3.7979,3.7899,3.7897,3.7896,3.7895,3.779,3.7787,3.7784,3.7791,0,0,3.7774,3.7773,0,0,0,0,0,0,0,0,3.8126,3.8118,3.8035,3.8029,3.8023,3.7951,3.7981,3.7916,3.7899,3.7944,3.7896,3.7894,3.7843,3.7836,3.782,3.7786,3.7781,3.7774,3.7772,3.7771,3.777,0,0,0,0,0,0,0,3.8131,3.8122,3.8041,3.8034,3.8026,3.8004,3.7993,3.7968,3.7902,3.794,3.7934,3.7924,3.7839,3.7823,3.7817,3.7779,3.7774,3.7771,3.777,3.7768,3.7746,3.7747,0,0,0,0,0,0,3.8145,3.8127,3.8044,3.8038,3.8073,3.8003,3.7991,3.7975,3.7902,3.789,3.7925,3.7921,3.7829,3.782,3.7813,3.7816,3.7771,3.7768,3.7766,3.7745,3.7746,3.7747,0,0,0,0,0,0,3.8148,3.8139,3.8048,3.8081,3.8068,3.8003,3.7986,3.7974,3.7958,3.7891,3.7878,3.7921,3.7828,3.7817,3.7797,3.7811,3.7767,3.7764,3.7743,3.7745,3.7747,3.7822,0,0,0,0,0,0,3.8151,3.814,3.8143,3.8082,3.8066,3.8037,3.7987,3.7973,3.7953,3.7946,3.7883,3.7872,3.7826,3.7802,3.7794,3.7806,3.7761,3.7742,3.7744,3.7746,3.7818,3.7827,3.7834,0,0,0,0,0,3.8156,3.8167,3.8144,3.8134,3.8069,3.8038,3.8028,3.7978,3.7955,3.7957,3.7914,3.7874,3.7811,3.7801,3.7791,3.7802,3.774,3.7743,3.7746,3.7815,3.7825,3.7834,0,0,0,0,0,0,3.8229,3.8158,3.8131,3.8124,3.8088,3.8024,3.8024,3.799,3.7957,3.7952,3.7888,3.7874,3.7862,3.783,3.782,3.7805,3.777,3.7771,3.7826,3.7835,3.7843,3.785,3.7759,0,0,0,0,0,3.8245,3.8227,3.8165,3.8164,3.8148,3.809,3.8074,3.8038,3.7997,3.7981,3.7936,3.7896,3.7867,3.785,3.7819,3.7814,3.7798,3.7816,3.7824,3.7831,3.7832,3.7826,3.7834,3.7757,3.7757,3.7757,0,0,3.8276,3.8235,3.8227,3.8178,3.8146,3.8127,3.8077,3.8059,3.8044,3.7977,3.7956,3.7923,3.7874,3.7861,3.7854,3.7834,3.785,3.7834,3.784,3.7838,3.783,3.7837,3.7844,3.7759,3.7758,3.7758,0,0,3.8324,3.8292,3.8288,3.8257,3.821,3.8172,3.8171,3.8113,3.8089,3.8068,3.8018,3.7998,3.795,3.7917,3.7894,3.7932,3.7893,3.7923,3.7963,3.7958,3.7964,3.7969,3.7982,3.7988,3.7925,3.7925,3.7925,0,3.8368,3.834,3.8289,3.8275,3.8254,3.8196,3.819,3.8162,3.8107,3.8093,3.8073,3.8013,3.7975,3.7955,3.7964,3.7948,3.7944,3.793,3.7968,3.7973,3.7976,3.7988,3.7993,3.7929,3.7929,3.7928,3.7928,0,3.8397,3.8378,3.838,3.8331,3.8311,3.8301,3.8246,3.8231,3.8198,3.8161,3.814,3.8094,3.8054,3.8047,3.8012,3.8021,3.8011,3.7981,3.7944,3.7989,3.7998,3.8002,3.7935,3.7933,3.7932,3.7931,0,0,3.8486,3.8411,3.8413,3.839,3.8335,3.8318,3.8305,3.8269,3.8257,3.8221,3.8208,3.817,3.8142,3.8116,3.8078,3.8074,3.8106,3.8044,3.8042,3.8056,3.8112,3.8135,3.8141,3.8081,3.8082,3.8082,3.8116,0,3.8524,3.85,3.8455,3.8444,3.8426,3.8371,3.836,3.8324,3.829,3.8268,3.8228,3.8203,3.8168,3.8152,3.8146,3.8104,3.8116,3.8101,3.8066,3.8066,3.808,3.8146,3.8169,3.8204,3.812,3.812,3.8121,0,3.8565,3.8536,3.8525,3.8472,3.8462,3.8453,3.8416,3.8396,3.8354,3.8329,3.8302,3.8261,3.8243,3.8212,3.8185,3.8175,3.8158,3.8136,3.8136,3.8129,3.8095,3.8141,3.8213,3.8218,3.8126,3.8126,3.8125,0,3.8631,3.8588,3.8576,3.8559,3.8496,3.8491,3.8465,3.8422,3.8403,3.837,3.8357,3.8322,3.8302,3.8275,3.8225,3.8206,3.8203,3.8168,3.8181,3.8182,3.8181,3.8182,3.8252,3.8173,3.8173,3.8172,3.8172,0,3.8678,3.8673,3.8605,3.8598,3.859,3.8537,3.8531,3.8499,3.8461,3.8445,3.8395,3.8381,3.8316,3.8294,3.8254,3.8238,3.823,3.8208,3.8197,3.8212,3.8215,3.8199,3.8195,3.8174,3.8173,3.8173,3.8173,0,3.8749,3.8704,3.8687,3.8631,3.8617,3.8614,3.8565,3.8554,3.8518,3.8499,3.8491,3.8433,3.8404,3.8353,3.8308,3.8282,3.8273,3.8255,3.8288,3.8282,3.8298,3.8297,3.8359,3.8364,3.8283,3.8284,3.8285,0,3.8782,3.8777,3.8722,3.8709,3.8685,3.8664,3.8646,3.8593,3.8576,3.8528,3.8523,3.8492,3.8463,3.8419,3.8372,3.8338,3.8318,3.8343,3.8312,3.8328,3.8318,3.8319,3.8317,3.8349,3.835,3.8351,3.8352,0,3.8844,3.8822,3.8799,3.8768,3.8748,3.872,3.8689,3.8681,3.8621,3.8604,3.8575,3.8554,3.851,3.8478,3.8438,3.8408,3.837,3.8362,3.8363,3.8378,3.8397,3.8386,3.8306,3.836,3.836,3.8359,3.8358,3.8358,3.8896,3.889,3.885,3.8826,3.8798,3.8771,3.8759,3.8723,3.8699,3.8661,3.8631,3.8605,3.8563,3.8505,3.8478,3.8455,3.8437,3.8439,3.8439,3.844,3.8446,3.8402,3.8447,3.8447,3.8447,3.8447,3.8446,0,3.8955,3.8928,3.8906,3.8866,3.8847,3.8816,3.8781,3.8766,3.8744,3.871,3.8684,3.8651,3.862,3.8572,3.8537,3.8528,3.851,3.8521,3.852,3.8514,3.8464,3.8467,3.8537,3.8537,3.8537,3.8536,3.8536,3.8536,3.8984,3.8972,3.8946,3.8919,3.889,3.8867,3.8849,3.8824,3.8796,3.8763,3.8738,3.8708,3.8667,3.8629,3.8599,3.8586,3.8575,3.8591,3.8572,3.8526,3.8517,3.8509,3.8511,3.8589,3.859,3.8623,3.8624,3.8624]}]]